Bedminster, NJ

1:38 PM EST on December 10, 2016 (GMT -0500)
Somerset

Weather History for KSMQ - June, 2015

Change the Weather History Date:

Monday, June 15, 2015

  Actual Average Record
Temperature  
Mean Temperature 76 °F -  
Max Temperature 88 °F 78 °F 96 °F (1957)
Min Temperature 66 °F 55 °F 39 °F (1933)
Cooling Degree Days 12    
Growing Degree Days 26 (Base 50)    
Moisture  
Dew Point 69 °F    
Average Humidity 87    
Maximum Humidity 97    
Minimum Humidity 59    
Precipitation  
Precipitation 0.08 in - - ()
Sea Level Pressure  
Sea Level Pressure 29.93 in    
Wind  
Wind Speed 2 mph (East)    
Max Wind Speed 8 mph    
Max Gust Speed -    
Visibility 5 miles    
Events Fog , Rain , Thunderstorm    
Averages and records for this station are not official NWS values.
T = Trace of Precipitation, MM = Missing Value Source: NWS Daily Summary

Daily Weather History Graph

Daily Weather History Graph

Search for Another Location

Airport or City:

Trip Planner

Search our weather history database for the weather conditions in past years. The results will help you decide how hot, cold, wet, or windy it might be!

Date:

Astronomy

Jun. 15, 2015 Rise Set
Actual Time 5:27 AM EDT 8:31 PM EDT
Civil Twilight 4:53 AM EDT 9:04 PM EDT
Nautical Twilight 4:11 AM EDT 9:46 PM EDT
Astronomical Twilight 3:21 AM EDT 10:36 PM EDT
Moon 4:54 AM EDT (6/15) 7:32 PM EDT (6/15)
Length of Visible Light 16h 10m
Length of Day
15h 04m
Waning Crescent, 1% of the Moon is Illuminated
Jun 15
Waning Crescent
Jun 16
New
Jun 24
First Quarter
Jul 1
Full
Jul 8
Last Quarter

Hourly Weather History & Observations

Time (EDT) Temp. Heat Index Dew Point Humidity Pressure Visibility Wind Dir Wind Speed Gust Speed Precip Events Conditions
12:37 AM 68.0 °F - 66.0 °F 93% 30.01 in 8.0 mi SSE 4.6 mph - 0.02 in Rain Light Rain
12:50 AM 68.0 °F - 64.4 °F 88% 30.00 in 8.0 mi Variable 4.6 mph - 0.02 in Rain Light Rain
12:53 AM 68.0 °F - 64.9 °F 90% 30.00 in 8.0 mi Variable 3.5 mph - 0.02 in   Overcast
1:09 AM 68.0 °F - 64.9 °F 90% 30.00 in 9.0 mi SSE 3.5 mph - 0.00 in   Overcast
1:53 AM 66.9 °F - 64.9 °F 93% 29.99 in 7.0 mi Calm Calm - 0.00 in   Overcast
2:10 AM 66.9 °F - 64.9 °F 93% 29.98 in 7.0 mi Calm Calm - N/A   Overcast
2:22 AM 66.9 °F - 64.9 °F 93% 29.98 in 6.0 mi Calm Calm - N/A   Overcast
2:53 AM 66.9 °F - 64.9 °F 93% 29.96 in 6.0 mi Calm Calm - N/A   Overcast
3:30 AM 68.0 °F - 64.9 °F 90% 29.96 in 7.0 mi Calm Calm - 0.03 in   Overcast
3:53 AM 68.0 °F - 66.0 °F 93% 29.96 in 5.0 mi Calm Calm - 0.03 in   Overcast
4:18 AM 68.0 °F - 66.0 °F 93% 29.96 in 3.0 mi Calm Calm - 0.00 in Rain Light Rain
4:50 AM 68.0 °F - 66.2 °F 94% 29.95 in 2.5 mi Calm Calm - 0.01 in Rain Light Rain
4:53 AM 68.0 °F - 66.2 °F 94% 29.95 in 2.0 mi Calm Calm - N/A   Overcast
5:02 AM 68.0 °F - 66.0 °F 93% 29.95 in 1.5 mi Calm Calm - N/A   Overcast
5:33 AM 68.0 °F - 66.0 °F 93% 29.95 in 0.8 mi Calm Calm - 0.00 in Rain Light Rain
5:53 AM 68.0 °F - 66.9 °F 96% 29.95 in 0.8 mi Calm Calm - 0.00 in Rain Light Rain
6:02 AM 68.0 °F - 66.9 °F 96% 29.94 in 0.5 mi Calm Calm - 0.00 in Fog , Rain Light Rain
6:10 AM 68.0 °F - 66.9 °F 96% 29.94 in 0.2 mi Calm Calm - 0.00 in Fog Fog
6:53 AM 69.1 °F - 66.9 °F 93% 29.94 in 0.2 mi Calm Calm - 0.00 in Fog Fog
7:38 AM 70.0 °F - 68.0 °F 93% 29.94 in 0.5 mi Calm Calm - N/A Fog Fog
7:53 AM 70.0 °F - 68.0 °F 93% 29.94 in 1.0 mi Calm Calm - N/A   Overcast
8:03 AM 70.0 °F - 68.0 °F 93% 29.94 in 0.5 mi Calm Calm - N/A Fog Fog
8:26 AM 70.0 °F - 69.1 °F 97% 29.94 in 1.0 mi Calm Calm - N/A   Mist
8:53 AM 71.1 °F - 70.0 °F 96% 29.93 in 1.2 mi Calm Calm - N/A   Overcast
9:12 AM 72.0 °F - 70.0 °F 93% 29.93 in 2.5 mi Calm Calm - N/A   Overcast
9:38 AM 73.0 °F - 71.1 °F 93% 29.93 in 3.0 mi Calm Calm - N/A   Overcast
9:46 AM 73.9 °F - 72.0 °F 93% 29.93 in 3.0 mi Calm Calm - N/A   Overcast
9:53 AM 73.9 °F - 71.1 °F 91% 29.93 in 3.0 mi Calm Calm - N/A   Overcast
10:33 AM 79.0 °F - 73.0 °F 82% 29.92 in 5.0 mi Variable 3.5 mph - N/A   Haze
10:53 AM 80.1 °F 84.2 °F 73.0 °F 79% 29.92 in 6.0 mi Variable 5.8 mph - N/A   Haze
11:13 AM 81.0 °F 85.8 °F 73.0 °F 77% 29.92 in 7.0 mi Variable 3.5 mph - N/A   Mostly Cloudy
11:27 AM 82.0 °F 86.7 °F 72.0 °F 71% 29.92 in 9.0 mi Variable 4.6 mph - N/A   Mostly Cloudy
11:53 AM 82.0 °F 86.7 °F 72.0 °F 71% 29.91 in 9.0 mi Variable 3.5 mph - N/A   Mostly Cloudy
12:53 PM 82.9 °F 88.0 °F 72.0 °F 69% 29.91 in 9.0 mi Variable 4.6 mph - N/A   Scattered Clouds
1:53 PM 84.9 °F 90.1 °F 71.1 °F 63% 29.88 in 10.0 mi Variable 3.5 mph - N/A   Clear
2:53 PM 87.1 °F 92.8 °F 71.1 °F 59% 29.88 in 10.0 mi Variable 6.9 mph - N/A   Partly Cloudy
3:53 PM 84.9 °F 89.4 °F 70.0 °F 61% 29.86 in 10.0 mi Variable 4.6 mph - N/A   Mostly Cloudy
4:07 PM 84.2 °F 88.4 °F 69.8 °F 62% 29.87 in 10.0 mi North - - N/A Thunderstorm Overcast
4:22 PM 82.0 °F 87.4 °F 73.0 °F 74% 29.88 in 6.0 mi NNW 8.1 mph - 0.01 in Rain Light Rain
4:53 PM 78.1 °F - 73.0 °F 84% 29.88 in 6.0 mi North - - 0.03 in Rain Light Rain
5:53 PM 79.0 °F - 73.9 °F 84% 29.88 in 9.0 mi Calm Calm - 0.00 in   Mostly Cloudy
6:53 PM 78.1 °F - 75.0 °F 90% 29.88 in 8.0 mi Calm Calm - N/A   Mostly Cloudy
7:23 PM 79.0 °F - 73.9 °F 84% 29.90 in 8.0 mi Calm Calm - N/A   Overcast
7:53 PM 75.9 °F - 72.0 °F 87% 29.91 in 5.0 mi East 3.5 mph - N/A   Overcast
8:41 PM 73.0 °F - 69.1 °F 87% 29.91 in 5.0 mi Calm Calm - N/A   Overcast
8:53 PM 73.0 °F - 69.1 °F 87% 29.92 in 5.0 mi East 4.6 mph - N/A   Overcast
9:34 PM 71.6 °F - 66.2 °F 83% 29.93 in 5.0 mi ENE 4.6 mph - N/A   Overcast
9:53 PM 70.0 °F - 66.9 °F 90% 29.94 in 5.0 mi Calm Calm - N/A   Overcast
10:53 PM 69.1 °F - 64.9 °F 87% 29.96 in 5.0 mi NE 4.6 mph - N/A   Overcast
11:53 PM 66.9 °F - 64.0 °F 90% 29.95 in 4.0 mi East 4.6 mph - N/A   Overcast